www.pogodaiklimat.ru

Погода и климат >> Архив погоды >> Венгрия >> Sopron


ПОГОДА в Sopron

  • Прогноз погоды в Sopron
  • Монитор погоды в Sopron
  • Климат города

АРХИВ ПОГОДЫ в Sopron

Время (UTC), дата Ветер
(напр.,м/с)
 
Видим.   Явления Облачность Т
(С)
Тd
(С)
f
(%)
Тe
(С)
Тes
(С)
Комфортность P
(гПа)
Po
(гПа)
Тmin
(С)
Tmax
(С)
R
(мм)
R24
(мм)
S
(см)
13 9.10 В 3 н/о н/о +22.3 +13.4 57 +25 +25 комфорт 1023.7 1009.7
14 9.10 В 3 н/о н/о +22.3 +12.6 54 +25 +25 комфорт 1023.5 1009.6
15 9.10 ЮВ 3 н/о н/о +22.0 +12.0 53 +24 +24 комфорт 1023.5 1009.5
16 9.10 ЮВ 3 н/о н/о +19.6 +12.8 65 +21 +21 комфорт 1023.4 1009.3
17 9.10 Ю 1 н/о н/о +15.9 +12.6 81 +17 +17 1023.8 1009.5
18 9.10 Ю 2 н/о н/о +13.1 +11.5 90 +12 +12 1024.1 1009.7 +22.6
19 9.10 С 2 н/о н/о +12.7 +11.6 93 +12 +12 1024.4 1010.0
20 9.10 штиль 0 н/о н/о +11.0 +10.2 95 +10 +10 1025.1 1010.6
21 9.10 штиль 0 н/о н/о +10.2 +9.7 97 +9 +9 1025.5 1010.9
22 9.10 штиль 0 н/о н/о +10.2 +10.0 99 +9 +9 1025.4 1010.8
23 9.10 С 2 н/о н/о +10.1 +10.1 100 +8 +8 1025.5 1010.9
00 10.10 Ю 1 н/о н/о +10.2 +10.0 99 +10 +10 1025.5 1010.9
01 10.10 С 2 н/о н/о +8.9 +8.8 99 +7 +7 1025.5 1010.9
02 10.10 штиль 0 н/о н/о +7.9 +7.8 99 +7 +7 1025.5 1010.8
03 10.10 штиль 0 н/о н/о +9.0 +8.9 99 +8 +8 1025.4 1010.8
04 10.10 СЗ 1 н/о н/о +9.9 +9.8 99 +9 +9 1025.6 1011.0
05 10.10 С 1 н/о н/о +10.9 +10.7 99 +10 +10 1025.5 1011.0
06 10.10 штиль 0 н/о н/о +10.5 +10.3 99 +10 +10 1025.9 1011.3 +7.5
07 10.10 штиль 0 н/о н/о +10.6 +10.4 99 +10 +10 1026.2 1011.6
08 10.10 штиль 0 н/о н/о +11.4 +11.2 99 +11 +11 1026.3 1011.8
09 10.10 С 2 н/о н/о +11.2 +11.0 99 +10 +10 1026.6 1012.1
10 10.10 В 1 н/о н/о +12.4 +12.2 99 +12 +12 1026.5 1012.0
11 10.10 В 1 н/о н/о +16.2 +16.0 99 +17 +17 1025.8 1011.5
12 10.10 ЮВ 3
{10}
н/о н/о +22.5 +12.7 54 +25 +25 комфорт 1024.2 1010.3 0.1
13 10.10 Ю 6
{9}
н/о н/о +22.4 +10.9 48 +24 +24 комфорт 1024.2 1010.2
14 10.10 Ю 5
{9}
н/о н/о +22.3 +10.8 48 +24 +24 комфорт 1023.8 1009.8
15 10.10 Ю 4 н/о н/о +22.0 +10.5 48 +24 +24 комфорт 1023.7 1009.7
16 10.10 ЮВ 4
{7}
н/о н/о +19.9 +10.3 54 +21 +21 комфорт 1023.7 1009.6
17 10.10 Ю 2 н/о н/о +16.3 +10.2 67 +16 +16 1024.1 1009.9
18 10.10 Ю 1 н/о н/о +12.3 +10.7 90 +12 +12 1024.6 1010.2 +23.2 0.1
19 10.10 Ю 1 н/о н/о +10.7 +9.5 92 +10 +10 1024.7 1010.2
20 10.10 штиль 0 н/о н/о +10.0 +9.2 95 +9 +9 1025.0 1010.4
21 10.10 штиль 0 н/о н/о +9.8 +9.3 97 +9 +9 1024.9 1010.3
22 10.10 штиль 0 н/о н/о +9.0 +8.9 99 +8 +8 1024.9 1010.3
23 10.10 СЗ 1 н/о н/о +7.9 +7.6 98 +7 +7 1024.8 1010.1
00 11.10 С 1 н/о н/о +8.5 +8.5 100 +8 +8 1024.9 1010.3
01 11.10 штиль 0 н/о н/о +8.1 +8.1 100 +7 +7 1024.8 1010.1
02 11.10 С 1 н/о н/о +6.7 +6.7 100 +5 +5 1024.7 1010.0
03 11.10 С 2 н/о н/о +7.3 +7.2 99 +5 +5 1024.7 1010.0
04 11.10 З 1 н/о н/о +6.9 +6.8 99 +6 +6 1024.3 1009.6
05 11.10 СЗ 1 н/о н/о +5.1 +5.1 100 +4 +4 1024.4 1009.6
06 11.10 С 1 н/о н/о +8.0 +7.9 99 +7 +7 1024.8 1010.1 +5.0
07 11.10 С 1 н/о н/о +9.4 +9.3 99 +9 +9 1024.8 1010.2
08 11.10 В 1 н/о н/о +10.6 +10.4 99 +10 +10 1025.1 1010.6
09 11.10 штиль 0 н/о н/о +13.0 +12.8 99 +12 +12 1024.9 1010.5
10 11.10 В 1 н/о н/о +16.9 +11.8 72 +18 +18 1024.3 1010.1
11 11.10 В 2 н/о н/о +20.6 +12.3 59 +23 +23 комфорт 1023.5 1009.5
12 11.10 ЮВ 5
{8}
н/о н/о +23.0 +10.1 44 +25 +25 комфорт 1022.8 1008.9
13 11.10 ЮВ 5
{9}
н/о н/о +23.4 +10.1 43 +25 +25 комфорт 1022.4 1008.5
14 11.10 ЮВ 5
{9}
н/о н/о +23.3 +10.4 44 +25 +25 комфорт 1022.1 1008.2
15 11.10 ЮВ 5 н/о н/о +22.8 +10.3 45 +25 +25 комфорт 1022.0 1008.1
16 11.10 Ю 2
{7}
н/о н/о +20.2 +11.2 56 +22 +22 комфорт 1022.1 1008.1
17 11.10 ЮВ 2 н/о н/о +16.1 +11.1 72 +16 +16 1022.8 1008.6
18 11.10 ЮВ 2 н/о н/о +14.7 +11.1 79 +14 +14 1023.3 1009.0 +23.8
19 11.10 ЮВ 2 н/о н/о +12.8 +9.8 82 +12 +12 1023.6 1009.2
20 11.10 штиль 0 н/о н/о +11.1 +9.7 91 +10 +10 1024.1 1009.6
21 11.10 штиль 0 н/о н/о +9.6 +8.8 95 +9 +9 1024.3 1009.7
22 11.10 Ю 1 н/о н/о +8.6 +8.2 97 +8 +8 1024.5 1009.9
23 11.10 Ю 1 н/о н/о +8.8 +8.7 99 +8 +8 1024.4 1009.8
00 12.10 ЮЗ 1 н/о н/о +8.0 +7.9 99 +7 +7 1024.8 1010.1
01 12.10 ЮВ 1 н/о н/о +8.0 +8.0 100 +7 +7 1024.9 1010.2
02 12.10 ЮВ 2 н/о н/о +8.9 +8.8 99 +7 +7 1024.7 1010.1
03 12.10 штиль 0 н/о н/о +7.9 +7.9 100 +7 +7 1025.0 1010.3
04 12.10 В 1 н/о н/о +6.4 +6.4 100 +5 +5 1025.7 1010.9
05 12.10 штиль 0 н/о н/о +6.9 +6.8 99 +6 +6 1026.0 1011.3
06 12.10 штиль 0 н/о н/о +6.3 +6.2 99 +5 +5 1026.8 1012.0 +5.6
07 12.10 С 1 н/о н/о +9.7 +9.6 99 +9 +9 1027.4 1012.8
08 12.10 ЮВ 2 н/о н/о +14.7 +11.8 83 +14 +14 1027.6 1013.2
09 12.10 В 2 н/о н/о +18.0 +12.7 71 +19 +19 1027.5 1013.3
10 12.10 ЮВ 5
{7}
н/о н/о +20.7 +9.0 47 +22 +22 комфорт 1027.3 1013.2
11 12.10 ЮВ 6
{8}
н/о н/о +21.5 +8.4 43 +23 +23 комфорт 1027.1 1013.1
12 12.10 ЮВ 5 н/о н/о +22.2 +8.3 41 +23 +23 комфорт 1026.8 1012.8
13 12.10 ЮВ 5
{7}
н/о н/о +22.2 +8.7 42 +24 +24 комфорт 1026.7 1012.7
14 12.10 ЮВ 5
{8}
н/о н/о +22.0 +8.5 42 +23 +23 комфорт 1026.6 1012.6
15 12.10 ЮВ 4 н/о н/о +21.2 +7.8 42 +22 +22 комфорт 1026.6 1012.6
16 12.10 ЮВ 2 н/о н/о +19.0 +8.6 51 +20 +20 1027.0 1012.8
17 12.10 Ю 1 н/о н/о +13.3 +8.2 71 +14 +14 1027.5 1013.1
18 12.10 Ю 1 н/о н/о +11.2 +8.6 84 +11 +11 1028.2 1013.6 +22.4
19 12.10 штиль 0 н/о н/о +9.2 +7.3 88 +8 +8 1028.5 1013.8
20 12.10 В 1 н/о н/о +9.4 +7.5 88 +9 +9 1028.7 1014.0
21 12.10 штиль 0 н/о н/о +8.4 +7.3 93 +7 +7 1028.9 1014.2
22 12.10 штиль 0 н/о н/о +7.5 +6.8 95 +6 +6 1029.0 1014.2
23 12.10 СЗ 1 н/о н/о +8.4 +8.1 98 +7 +7 1028.9 1014.2
00 13.10 штиль 0 н/о н/о +6.3 +5.9 97 +5 +5 1029.0 1014.2
01 13.10 штиль 0 н/о н/о +5.6 +5.3 98 +4 +4 1028.9 1014.0
02 13.10 штиль 0 н/о н/о +5.3 +5.2 99 +4 +4 1028.9 1014.0
03 13.10 С 1 н/о н/о +5.6 +5.5 99 +4 +4 1028.8 1013.9
04 13.10 С 1 н/о н/о +5.0 +4.9 99 +3 +3 1028.9 1014.0
05 13.10 СЗ 1 н/о н/о +5.5 +5.5 100 +4 +4 1028.8 1013.9
06 13.10 С 1 н/о н/о +5.0 +4.9 99 +3 +3 1029.2 1014.3 +4.7
07 13.10 С 1 н/о н/о +8.3 +8.2 99 +7 +7 1029.5 1014.8
08 13.10 С 1 н/о н/о +11.3 +11.3 100 +11 +11 1029.6 1015.0
09 13.10 В 1 н/о н/о +14.5 +10.3 76 +15 +15 1029.3 1014.9
10 13.10 ЮВ 1 н/о н/о +17.5 +10.6 64 +19 +19 1029.1 1014.8
11 13.10 ЮВ 6
{8}
н/о н/о +21.6 +8.8 44 +23 +23 комфорт 1027.9 1013.9
12 13.10 ЮВ 5 н/о н/о +22.1 +8.6 42 +23 +23 комфорт 1027.3 1013.3
13 13.10 Ю 6
{9}
н/о н/о +22.4 +8.9 42 +24 +24 комфорт 1026.8 1012.8
14 13.10 Ю 6
{9}
н/о н/о +21.8 +8.0 41 +23 +23 комфорт 1026.4 1012.4
15 13.10 ЮВ 5 н/о н/о +21.1 +7.7 42 +22 +22 комфорт 1026.0 1012.0
16 13.10 ЮВ 3
{7}
н/о н/о +18.2 +8.7 54 +19 +19 1026.2 1012.0
17 13.10 Ю 1 н/о н/о +14.0 +8.6 70 +14 +14 1026.4 1012.0
18 13.10 ЮВ 1 н/о н/о +11.8 +8.6 81 +12 +12 1026.7 1012.2 +22.5
19 13.10 В 1 н/о н/о +10.6 +8.4 86 +10 +10 1026.7 1012.1
20 13.10 штиль 0 н/о н/о +9.7 +8.5 92 +9 +9 1026.6 1012.0
21 13.10 штиль 0 н/о н/о +8.8 +7.9 94 +8 +8 1026.4 1011.7
22 13.10 С 1 н/о н/о +8.4 +8.0 97 +7 +7 1026.4 1011.7
23 13.10 штиль 0 н/о н/о +6.9 +6.5 97 +6 +6 1026.3 1011.6
00 14.10 штиль 0 н/о н/о +6.4 +6.1 98 +5 +5 1026.3 1011.5
01 14.10 штиль 0 н/о н/о +6.3 +6.2 99 +5 +5 1026.3 1011.5
02 14.10 С 1 н/о н/о +5.8 +5.8 100 +4 +4 1026.1 1011.3
03 14.10 штиль 0 н/о н/о +5.2 +5.2 100 +4 +4 1025.8 1011.0
04 14.10 штиль 0 н/о н/о +4.0 +4.0 100 +3 +3 1025.6 1010.7
05 14.10 СЗ 1 н/о н/о +4.0 +4.0 100 +2 +2 1025.3 1010.4
06 14.10 С 1 н/о н/о +3.8 +3.8 100 +2 +2 1025.2 1010.3 +3.6
07 14.10 С 1 н/о н/о +7.8 +7.7 99 +7 +7 1025.2 1010.5
08 14.10 штиль 0 н/о н/о +10.9 +10.7 99 +10 +10 1024.8 1010.3
09 14.10 ЮВ 2 н/о н/о +16.3 +10.4 68 +16 +16 1024.4 1010.2
10 14.10 Ю 6
{9}
н/о н/о +19.4 +7.2 45 +20 +20 1023.9 1009.8
11 14.10 Ю 7
{11}
н/о н/о +21.0 +4.1 33 +21 +21 комфорт 1023.3 1009.3
12 14.10 ЮВ 7
{11}
н/о н/о +21.0 +4.6 34 +21 +21 комфорт 1022.9 1008.9
13 14.10 Ю 8
{11}
н/о н/о +21.4 +3.6 31 +22 +22 комфорт 1022.3 1008.3
14 14.10 Ю 7
{11}
н/о н/о +21.4 +4.9 34 +22 +22 комфорт 1022.0 1008.0
15 14.10 Ю 6
{10}
н/о н/о +20.5 +3.3 32 +21 +21 комфорт 1021.6 1007.6
16 14.10 Ю 3
{9}
н/о н/о +17.8 +3.3 38 +18 +18 1021.9 1007.8
17 14.10 В 2 н/о н/о +13.9 +6.0 59 +14 +14 1022.5 1008.2
18 14.10 ЮЗ 1 н/о н/о +9.5 +5.9 78 +9 +9 1022.9 1008.3 +21.7
19 14.10 штиль 0 н/о н/о +7.0 +4.7 85 +6 +6 1023.2 1008.5
20 14.10 штиль 0 н/о н/о +6.5 +4.5 87 +6 +6 1023.3 1008.6
21 14.10 ЮВ 1 н/о н/о +5.7 +4.0 89 +4 +4 1023.3 1008.5
22 14.10 ЮВ 1 н/о н/о +6.0 +4.8 92 +5 +5 1023.2 1008.4
23 14.10 ЮВ 2 н/о н/о +4.9 +4.0 94 +2 +2 1023.1 1008.3
00 15.10 Ю 2 н/о н/о +5.3 +4.1 92 +3 +3 1023.4 1008.6
01 15.10 С 1 н/о н/о +4.8 +3.9 94 +3 +3 1023.3 1008.5
02 15.10 С 1 н/о н/о +5.3 +3.5 88 +4 +4 1023.5 1008.7
03 15.10 С 2 н/о н/о +4.4 +3.4 93 +2 +2 1023.8 1009.0
04 15.10 З 2 н/о н/о +5.4 +4.7 95 +3 +3 1023.6 1008.8
05 15.10 З 1 н/о н/о +3.1 +2.2 94 +1 +1 1023.8 1008.9
06 15.10 З 1 н/о н/о +3.8 +3.4 97 +2 +2 1023.7 1008.8 +2.8
07 15.10 штиль 0 н/о н/о +6.7 +6.3 97 +6 +6 1024.0 1009.3
08 15.10 штиль 0 н/о н/о +11.8 +6.7 71 +11 +11 1023.6 1009.1
09 15.10 ЮВ 3 н/о н/о +14.7 +4.4 50 +14 +14 1023.2 1008.9
10 15.10 ЮВ 5
{7}
н/о н/о +16.6 +4.0 43 +16 +16 1022.8 1008.6
11 15.10 ЮВ 5
{7}
н/о н/о +17.5 +4.1 41 +17 +17 1022.4 1008.2
12 15.10 Ю 5
{8}
н/о н/о +18.0 +5.2 43 +18 +18 1022.0 1007.9
13 15.10 ЮВ 5
{9}
н/о н/о +17.6 +5.5 45 +17 +17 1021.6 1007.5
14 15.10 Ю 5
{8}
н/о н/о +17.9 +6.1 46 +18 +18 1021.5 1007.4
15 15.10 Ю 5 н/о н/о +17.7 +6.9 49 +17 +17 1021.4 1007.3
16 15.10 Ю 2 н/о н/о +14.8 +6.6 58 +15 +15 1021.6 1007.3
17 15.10 В 1 н/о н/о +12.1 +7.6 74 +12 +12 1021.8 1007.4
18 15.10 В 1 н/о н/о +10.4 +6.9 79 +10 +10 1021.9 1007.4 +18.5
19 15.10 В 1 н/о н/о +10.0 +6.9 81 +10 +10 1022.1 1007.6
20 15.10 ЮВ 2 н/о н/о +9.8 +7.1 83 +8 +8 1022.1 1007.6
21 15.10 В 1 н/о н/о +8.6 +6.4 86 +8 +8 1022.3 1007.7
22 15.10 штиль 0 н/о н/о +8.1 +6.1 87 +7 +7 1022.2 1007.6
23 15.10 штиль 0 н/о н/о +7.2 +5.7 90 +6 +6 1021.9 1007.2
00 16.10 СВ 2 н/о н/о +6.8 +5.7 93 +4 +4 1021.9 1007.2
01 16.10 Ю 1 н/о н/о +6.9 +6.0 94 +6 +6 1021.7 1007.0
02 16.10 С 1 н/о н/о +5.4 +5.0 97 +4 +4 1021.6 1006.8
03 16.10 С 1 н/о н/о +4.9 +4.6 98 +3 +3 1021.4 1006.6
04 16.10 В 2 н/о н/о +5.7 +5.1 96 +3 +3 1021.3 1006.6
05 16.10 штиль 0 н/о н/о +5.4 +4.8 96 +4 +4 1021.5 1006.7
06 16.10 В 2 н/о н/о +9.0 +7.0 87 +7 +7 1021.5 1006.9 +4.4
07 16.10 ЮВ 5
{6}
н/о н/о +11.8 +7.3 74 +9 +9 1021.7 1007.3
08 16.10 ЮВ 3 н/о н/о +15.4 +7.2 58 +15 +15 1021.6 1007.3
09 16.10 ЮВ 3 н/о н/о +18.4 +9.2 55 +19 +19 1021.4 1007.3
10 16.10 В 3 н/о н/о +19.4 +9.3 52 +21 +21 комфорт 1021.5 1007.4
11 16.10 ЮВ 5
{8}
н/о н/о +19.6 +9.2 51 +20 +20 1021.2 1007.2
12 16.10 ЮВ 5
{9}
н/о н/о +20.5 +8.8 47 +22 +22 комфорт 1020.8 1006.8

 

Местоположение метеостанции Sopron (Венгрия): широта 47.68 долгота 16.60 высота над уровнем моря 239 м.

В архиве по умолчанию представлена погода в Sopron за последнюю неделю. Архивные данные за месяц целиком и за предыдущие месяцы, начиная с января 2011 года, Вы можете получить, выбрав интересующий диапазон дат из раскрывающегося списка и нажав кнопку "Ввод!".


*Определитесь, кто Вы:
робот инопланетянин человек

Внимание! Время в таблицах - всемирное. Для получения местного времени необходимо прибавить поправку, которая в Sopron равна 1 ч.

Смотрите также архив погоды в соседних городах и на ближайших метеорологических станциях:

Погода в Eisenstadt (Австрия) (20 км)
Погода в Lutzmannsburg (Австрия) (24 км)
Погода в Wiener Neustadt (Австрия) (33 км)
Погода в Andau (Австрия) (34 км)
Погода в Seibersdorf (Австрия) (34 км)
Погода в Krumbach I. D. Buckligen Welt (Австрия) (35 км)
Погода в Neusiedl (Австрия) (35 км)
Погода в Hohe Wand (Австрия) (45 км)
Погода в Szombathely (Венгрия) (46 км)
Погода в Gumpoldskirchen (Австрия) (46 км)

Пояснения к столбцам:

Ветер - указаны скорость ветра в м/с - средняя за 10 мин, порывы в срок и между сроками (в фигурных скобках) и направление, откуда дует ветер: С - северный, СВ - северо-восточный, В - восточный, ЮВ - юго-восточный, Ю - южный, ЮЗ - юго-западный, З - западный, СЗ - северо-западный.
Видимость - горизонтальная дальность видимости в метрах или километрах. При видимости от 1 до 10 км при отсутствии осадков обычно наблюдается дымка, при ухудшении видимости до 1 км и менее - туман. В сухую погоду видимость может ухудшаться дымом, пылью или мглою.
Явления - указаны атмосферные явления, наблюдавшиеся в срок или в последний час перед сроком; фигурными скобками обозначены явления, наблюдавшиеся между сроками (за 1-3 часа до срока); квадратными скобками обозначены град или гололедные отложения с указанием их диаметра в мм.
Облачность - указаны через наклонную черту общая и нижняя облачность в баллах и высота нижней границы облаков в метрах; квадратными скобками обозначены формы облаков: Ci - перистые, Cs - перисто-слоистые, Cc - перисто-кучевые, Ac - высококучевые, As - высокослоистые, Sc - слоисто-кучевые, Ns - слоисто-дождевые, Cu - кучевые, Cb - кучево-дождевые. Подробнее классификацию облаков см. в Атласе облаков (PDF).
T - Температура воздуха - температура, измеренная на высоте 2 м над землей.
Td - Температура точки росы - температура, при понижении до которой содержащийся в воздухе водяной пар достигнет насыщения.
f - Относительная влажность воздуха - влажноcть воздуха, измеренная на высоте 2 м над землей.
Te - Эффективная температура - температура, которую ощущает одетый по сезону человек в тени. Характеристика душности погоды. При расчете учитывается влияние влажности воздуха и скорости ветра на теплоощущения человека.
Tes - Эффективная температура на солнце - температура, которую ощущает человек, с поправкой на солнечный нагрев. Характеристика знойности погоды. Зависит от высоты солнца над горизонтом, облачности и скорости ветра. Ночью, в пасмурную погоду, а также при ветре 12 м/с и более поправка равна нулю.
P - Атмосферное давление - приведенное к уровню моря атмосферное давление.
Po - Атмосферное давление - измеренное на уровне метеостанции атмосферное давление.
Tmin - Минимальная температура - минимум температуры воздуха на высоте 2 м над землей.
Tmax - Максимальная температура - максимум температуры воздуха на высоте 2 м над землей.
R - Количество осадков - Количество выпавших осадков за период времени, мм. При наведении курсора мыши на число - период времени, за который выпало указанное количество осадков.
R24 - Количество осадков - Количество выпавших осадков за 24 часа, мм.
S - Снежный покров - Высота снежного покрова, см. При наведении курсора мыши на число - состояние снежного покрова и степень покрытия местности в баллах.